User: anonymous   Login
Location: Morehead State University
(38.1872°N, 83.4339°W)
Time: 10:17:01
(UTC-04:00)
Language:

Okean 2 - Orbit

View from above orbital plane
View from above orbital plane
View from above satellite
View from above satellite

Ground track
Ground track

The orbit data is extracted from the following two-line orbital elements,

1 20510U 90018A   15148.59187863  .00000923  00000-0  76434-4 0  9994
2 20510 082.5153 171.6423 0012619 003.9589 114.9560 14.97703752369044
Epoch (UTC): 28 May 2015 14:12:18
Eccentricity: 0.0012619
inclination: 82.5153°
perigee height: 565 km
apogee height: 583 km
right ascension of ascending node: 171.6423°
argument of perigee: 3.9589°
revolutions per day: 14.97703752
mean anomaly at epoch: 114.9560°
orbit number at epoch: 36904

The dashed part of the orbit path shows where the satellite is in the earth's shadow,  

DLR